TimeEST,TemperatureF,Dew PointF,Humidity,Sea Level PressureIn,VisibilityMPH,Wind Direction,Wind SpeedMPH,Gust SpeedMPH,PrecipitationIn,Events,Conditions,WindDirDegrees,DateUTC
12:51 AM,37.0,24.1,59,30.27,10.0,NW,5.8,-,N/A,,Overcast,320,2013-01-15 05:51:00
1:51 AM,35.1,26.1,70,30.26,10.0,NNE,8.1,-,0.00,Rain,Light Rain,20,2013-01-15 06:51:00
2:51 AM,35.1,25.0,67,30.26,10.0,NW,4.6,-,0.00,,Mostly Cloudy,320,2013-01-15 07:51:00
3:51 AM,35.1,25.0,67,30.24,10.0,NNW,3.5,-,N/A,,Overcast,330,2013-01-15 08:51:00
4:51 AM,34.0,24.1,67,30.24,10.0,NNW,5.8,-,N/A,,Mostly Cloudy,330,2013-01-15 09:51:00
5:51 AM,32.0,24.1,73,30.25,10.0,NNW,4.6,-,N/A,,Mostly Cloudy,330,2013-01-15 10:51:00
6:51 AM,30.9,23.0,72,30.29,10.0,NNW,3.5,-,N/A,,Mostly Cloudy,340,2013-01-15 11:51:00
7:51 AM,30.0,23.0,75,30.31,10.0,North,4.6,-,N/A,,Mostly Cloudy,350,2013-01-15 12:51:00
8:51 AM,35.1,23.0,61,30.33,10.0,NNW,6.9,-,N/A,,Mostly Cloudy,340,2013-01-15 13:51:00
9:51 AM,36.0,23.0,59,30.35,10.0,North,8.1,-,N/A,,Mostly Cloudy,350,2013-01-15 14:51:00
10:51 AM,36.0,23.0,59,30.31,10.0,North,4.6,-,N/A,,Mostly Cloudy,350,2013-01-15 15:51:00
11:51 AM,37.0,21.9,54,30.30,10.0,NNW,6.9,-,N/A,,Overcast,340,2013-01-15 16:51:00
12:51 PM,37.9,21.9,53,30.29,10.0,NW,3.5,-,N/A,,Overcast,320,2013-01-15 17:51:00
1:51 PM,39.0,21.9,50,30.27,10.0,NNE,5.8,-,N/A,,Mostly Cloudy,20,2013-01-15 18:51:00
2:51 PM,39.0,21.0,49,30.27,10.0,North,3.5,-,N/A,,Overcast,360,2013-01-15 19:51:00
3:51 PM,37.4,21.2,52,30.26,10.0,Calm,Calm,-,N/A,,Overcast,0,2013-01-15 20:51:00
4:51 PM,37.0,21.9,54,30.28,10.0,Calm,Calm,-,N/A,,Overcast,0,2013-01-15 21:51:00
5:51 PM,36.0,21.9,57,30.27,10.0,WNW,3.5,-,N/A,,Overcast,290,2013-01-15 22:51:00
6:51 PM,35.1,21.9,59,30.29,10.0,NNW,5.8,-,N/A,,Overcast,330,2013-01-15 23:51:00
7:51 PM,35.1,21.9,59,30.28,10.0,North,5.8,-,N/A,,Overcast,350,2013-01-16 00:51:00
8:51 PM,34.0,21.9,61,30.27,10.0,North,5.8,-,N/A,,Overcast,360,2013-01-16 01:51:00
9:51 PM,33.1,23.0,66,30.25,10.0,Calm,Calm,-,N/A,,Overcast,0,2013-01-16 02:51:00
10:51 PM,33.1,21.9,64,30.25,10.0,NNW,3.5,-,N/A,,Overcast,340,2013-01-16 03:51:00
11:51 PM,33.1,23.0,66,30.25,10.0,WNW,3.5,-,N/A,,Overcast,300,2013-01-16 04:51:00